GFSNE_925_thetae_021.txt.gz
Theta_e
304 304 303 303 302 302 301 301 302 303 304 302 303 303 303 303 303 303 303 303 303 304 304 305 306 307 308 309 310 310 312 313 314 320 324 330 329 331
303 303 303 302 301 301 301 301 301 302 304 303 303 303 303 303 303 303 302 303 303 303 304 305 306 307 307 308 309 309 310 312 312 318 322 320 322 329
303 302 302 301 301 301 300 301 302 302 304 304 304 303 303 302 302 303 303 303 303 304 305 305 306 307 307 308 308 309 310 310 311 310 314 319 327 328
302 302 302 301 301 300 301 302 303 303 303 304 303 303 303 302 303 303 303 303 304 304 304 306 306 307 307 308 308 308 309 310 310 310 309 314 328 327
302 301 301 301 300 300 301 302 303 303 302 303 303 303 303 303 303 302 302 303 304 304 305 306 306 307 307 307 307 307 308 308 311 305 309 315 326 325
301 301 300 300 300 301 302 302 302 302 302 302 302 302 302 302 303 304 305 305 304 304 305 306 307 307 308 308 308 307 307 308 311 308 309 315 325 324
301 300 300 300 301 302 302 302 302 301 302 301 302 302 302 303 303 304 304 303 303 304 305 305 306 308 308 309 308 307 307 309 305 308 308 315 326 323
301 300 300 301 302 302 302 301 301 301 301 301 301 301 302 303 303 303 303 303 305 305 306 306 308 308 309 309 308 308 307 306 304 312 313 322 325 321
300 301 301 301 300 300 300 301 301 301 302 302 302 302 303 303 303 304 304 304 305 306 306 306 307 309 309 309 308 307 306 309 310 311 314 324 323 315
301 301 301 301 301 300 300 300 301 301 302 302 302 303 303 304 305 306 306 305 305 306 307 308 309 310 310 309 308 307 307 313 312 314 321 323 317 314
301 301 301 301 301 300 301 301 302 301 301 301 302 302 304 304 304 305 305 306 310 310 310 310 311 311 311 310 309 313 317 314 316 322 322 318 313 313
301 300 300 300 300 300 301 301 302 300 300 301 302 303 302 303 303 303 305 311 312 312 311 311 312 311 314 314 318 319 316 315 322 322 317 312 312 310
300 300 301 301 300 300 301 302 301 300 300 302 302 302 302 302 302 304 307 312 311 311 315 312 313 314 320 319 318 318 317 318 318 315 311 311 310 311
300 300 302 300 301 302 302 301 300 300 301 301 302 302 302 302 303 305 310 315 316 315 317 314 318 319 318 317 316 315 314 314 313 311 310 309 310 311
300 301 300 300 300 301 302 300 299 300 300 301 302 301 301 302 303 306 311 318 318 320 320 317 319 318 318 317 315 313 312 311 310 309 309 310 311 311
300 300 300 300 300 299 300 299 299 300 300 300 301 300 301 302 304 306 309 319 320 318 318 318 318 318 315 314 313 311 310 309 309 309 310 311 311 311
300 301 301 300 300 300 300 299 299 300 300 301 301 300 301 302 303 305 310 318 320 317 315 315 317 316 315 313 310 309 308 309 309 309 309 309 309 309
300 300 300 300 299 299 299 299 299 299 299 300 301 300 301 302 303 305 308 316 320 316 314 314 314 313 312 310 310 309 308 309 309 309 309 308 308 309
299 299 299 299 299 299 298 298 298 299 298 300 300 299 300 301 302 304 306 316 316 316 315 315 315 314 313 312 311 309 308 309 309 309 309 308 308 309
298 299 299 298 298 298 297 297 297 298 298 300 300 299 299 301 302 303 304 307 315 317 316 316 316 317 315 313 313 310 308 309 310 310 309 309 308 309
298 298 297 298 298 297 297 297 298 298 299 300 300 298 299 300 301 301 302 305 314 315 317 318 318 319 316 314 313 310 309 310 310 309 308 308 307 308
297 297 297 297 297 297 297 298 299 299 299 300 300 299 298 299 300 300 301 303 309 315 315 317 320 318 315 315 313 311 309 310 310 309 308 309 308 308
297 297 297 296 297 297 297 298 298 299 299 299 300 299 298 299 299 299 300 302 305 315 314 314 317 317 316 315 313 310 308 307 307 307 307 308 309 309

GFSNE_925_thetae_024.txt.gz
Theta_e
304 304 304 303 303 302 302 302 301 298 298 301 301 302 302 303 303 303 303 303 303 303 304 305 305 304 306 306 309 310 311 312 313 314 315 319 324 332
304 304 304 303 303 302 302 301 301 301 299 301 302 303 303 303 303 302 302 302 302 303 303 303 303 305 305 307 308 309 310 310 311 313 313 320 324 324
304 304 303 303 302 302 301 301 300 301 301 302 303 303 303 303 303 302 301 303 302 303 303 303 304 305 306 307 308 309 309 309 310 311 313 314 320 323
303 303 303 302 301 301 301 300 300 301 302 302 303 302 302 302 302 302 302 302 303 303 303 305 305 305 307 307 307 308 309 308 310 311 313 312 317 323
303 303 302 302 301 301 300 300 302 302 303 302 302 302 302 301 301 302 302 302 303 303 304 305 305 305 306 306 306 307 307 307 307 308 312 312 315 319
303 302 302 301 301 300 300 301 302 302 302 301 301 301 300 301 300 301 301 302 304 304 304 304 305 306 307 307 307 307 308 306 307 307 310 309 313 316
302 302 301 301 300 300 301 302 302 302 302 301 301 300 300 300 300 300 301 302 303 303 303 303 304 305 305 306 308 309 308 307 307 307 310 309 311 313
301 301 300 300 301 302 303 304 303 302 301 301 301 301 301 301 301 302 303 303 303 304 304 304 304 305 306 307 308 308 308 307 307 307 310 310 309 311
301 301 300 300 301 301 301 301 301 301 301 302 302 301 301 302 302 302 303 304 305 305 305 305 305 306 306 306 308 307 309 307 307 308 308 310 310 313
301 300 301 301 301 301 300 300 300 300 301 301 301 302 301 302 303 304 304 304 304 305 305 306 306 306 306 307 309 308 308 307 307 308 311 310 313 317
301 301 301 301 301 301 301 300 300 301 302 300 301 300 302 303 303 304 304 304 304 305 307 307 307 307 308 309 309 308 308 307 307 305 311 316 319 317
301 301 301 301 300 301 301 300 301 301 301 300 300 301 301 302 303 303 303 304 305 309 310 309 309 310 310 310 309 308 309 307 307 308 309 317 317 315
301 301 300 300 301 301 301 301 302 302 300 300 301 300 302 301 302 302 303 304 307 310 310 311 311 310 309 310 310 310 309 308 310 312 315 317 315 311
300 300 301 301 301 301 302 302 302 301 299 300 299 301 301 301 302 303 304 306 311 311 314 313 312 309 312 316 313 313 314 314 314 314 314 314 312 309
300 301 301 301 301 300 300 301 300 299 299 300 299 301 301 301 302 303 306 312 315 317 316 316 314 315 316 315 315 314 314 313 313 312 311 310 309 310
300 300 300 299 300 299 300 300 299 299 300 299 300 301 300 301 302 303 305 308 317 317 318 316 315 315 314 314 313 312 311 310 309 309 309 310 310 310
300 300 301 300 300 300 300 299 299 298 299 298 300 300 299 301 302 303 305 312 316 317 315 316 313 313 312 311 310 309 308 308 308 309 310 310 310 310
300 300 300 300 299 299 299 298 298 298 298 297 300 299 299 301 302 303 305 311 315 315 314 313 311 310 310 309 309 308 308 308 309 310 311 310 310 311
299 299 299 299 299 299 298 297 298 297 297 297 300 299 299 300 301 302 304 306 315 314 314 313 312 312 312 310 308 308 308 309 309 309 310 309 308 309
298 299 299 298 298 298 297 297 297 296 297 298 300 299 299 300 301 301 302 304 311 315 314 313 313 313 310 309 308 309 308 308 308 308 308 308 309 310
298 298 298 297 298 297 297 296 297 298 298 298 300 299 298 299 300 300 301 303 307 315 315 315 316 313 310 308 308 308 309 309 308 308 308 308 308 308
298 297 297 297 297 297 297 297 298 298 299 298 300 299 298 298 299 299 300 301 304 307 316 317 315 312 310 309 309 308 309 309 309 308 308 308 308 307
297 297 296 296 297 297 297 297 298 298 298 298 299 299 297 298 298 299 299 300 302 306 314 316 314 314 313 310 309 308 306 308 308 308 308 308 309 310

GFSNE_925_thetae_030.txt.gz
Theta_e
308 307 306 306 305 304 303 303 300 296 296 299 300 300 300 300 301 302 303 303 302 303 304 305 304 304 305 305 305 306 306 307 308 310 312 313 314 315
308 308 307 305 305 304 303 303 302 300 296 299 300 300 300 300 302 303 303 301 302 303 304 303 303 304 304 305 305 306 306 307 307 308 311 311 312 314
307 308 307 305 304 303 303 302 301 301 297 300 299 300 300 301 302 302 302 301 301 301 302 303 304 304 304 304 304 306 305 306 307 309 310 309 311 312
306 306 306 304 303 303 302 302 301 301 300 298 299 299 300 302 301 301 300 299 299 299 301 302 303 303 304 304 305 306 306 306 307 308 309 310 311 312
306 305 305 304 303 303 302 302 301 301 300 299 299 300 301 301 301 299 300 300 300 300 300 302 303 304 305 304 304 305 306 306 305 306 308 309 309 312
305 305 304 304 303 303 302 302 301 300 299 299 300 300 301 301 300 300 300 300 300 300 301 301 302 303 304 305 305 306 305 305 305 305 306 306 307 309
304 304 304 304 304 303 302 301 300 300 300 300 300 300 300 300 300 301 299 299 300 300 300 300 300 301 302 304 305 305 306 305 305 307 306 306 307 307
303 303 304 304 303 303 302 301 301 300 301 301 301 300 300 300 300 300 299 298 299 299 300 300 301 302 302 303 304 304 305 305 305 307 307 306 307 307
303 303 303 303 303 304 305 304 301 303 305 304 302 301 300 300 300 300 299 299 299 300 301 303 304 305 305 304 304 304 305 305 305 305 305 307 307 307
303 304 303 303 303 302 303 303 304 304 303 301 300 300 302 301 301 301 301 301 302 303 303 304 304 304 304 304 305 305 305 305 305 307 308 308 307 307
303 303 303 302 302 301 300 301 301 300 300 300 301 302 301 301 301 301 301 302 303 303 304 304 304 305 304 305 305 305 305 305 306 308 308 307 307 310
301 302 302 302 300 301 301 300 300 300 299 300 301 299 299 299 298 300 300 302 302 303 304 304 304 304 306 306 306 305 306 305 307 308 307 306 308 309
299 300 300 300 302 304 302 300 300 300 302 302 299 298 298 298 300 300 300 301 301 302 303 304 305 305 308 307 306 305 306 308 309 307 307 307 309 311
299 300 300 300 302 303 303 301 302 302 301 298 298 297 297 299 300 300 300 302 304 304 306 305 305 307 308 308 307 308 308 309 308 308 307 309 311 314
300 300 300 301 302 303 302 302 302 300 298 298 297 297 299 300 300 301 304 308 312 312 312 307 307 308 308 307 307 308 307 307 307 307 307 309 312 314
300 301 301 302 303 302 301 301 300 298 298 296 296 299 299 299 300 302 303 306 311 311 308 307 309 308 307 306 306 307 307 307 307 308 311 313 313 314
301 303 303 303 301 300 300 299 298 298 297 296 297 299 299 299 301 302 304 307 311 312 311 309 309 308 307 307 307 307 310 308 309 311 311 310 310 312
301 301 300 300 299 299 298 297 297 296 296 297 299 298 298 299 301 302 303 306 312 311 310 310 310 309 309 308 308 309 310 310 310 310 310 309 308 310
299 299 299 299 298 298 297 297 296 296 297 298 298 297 298 299 300 301 302 305 313 312 311 310 310 310 310 310 310 310 310 310 309 309 309 310 307 308
299 299 299 298 298 297 296 296 296 297 297 299 298 297 297 299 300 300 301 303 309 312 310 309 309 309 309 309 308 308 310 309 309 308 308 308 308 308
299 299 299 298 297 296 296 297 298 298 298 297 297 296 296 298 299 300 301 302 305 310 310 309 308 310 309 308 306 305 307 308 309 309 307 307 307 307
299 298 298 297 297 296 296 297 297 297 297 296 296 296 296 297 298 299 300 301 303 308 308 308 307 308 308 307 306 304 304 307 309 309 309 309 309 306
298 298 297 297 297 296 296 297 297 297 296 296 296 295 295 296 297 298 299 300 302 306 309 308 308 307 307 306 306 305 306 307 308 308 308 308 308 309

GFSNE_925_thetae_033.txt.gz
Theta_e
307 308 307 306 306 305 304 303 301 297 296 300 301 300 300 300 300 300 300 301 302 304 304 304 305 306 306 306 306 307 307 307 308 308 309 309 311 313
306 307 307 306 306 305 304 303 303 301 297 299 299 300 300 300 299 300 302 302 303 302 304 304 305 304 304 304 305 306 306 306 307 307 308 309 311 312
306 306 308 307 305 306 304 303 302 302 298 299 299 299 300 300 299 301 302 302 301 301 301 303 303 303 304 305 305 305 305 305 306 307 308 307 310 311
306 305 306 306 304 305 305 303 302 302 301 298 300 300 299 299 300 301 301 301 300 299 299 301 302 303 303 304 305 305 306 306 307 307 307 308 310 311
307 304 305 306 303 304 304 302 302 301 301 300 299 299 299 299 301 301 301 300 300 300 300 302 302 303 304 304 304 304 304 304 306 306 307 308 308 310
307 306 305 305 304 304 303 302 302 301 300 299 299 299 299 300 300 300 300 300 301 300 300 300 301 301 302 303 304 305 306 306 305 305 307 306 307 308
307 307 304 304 305 306 303 302 302 301 299 298 298 299 299 300 300 300 300 300 300 300 299 298 298 300 301 302 303 305 305 304 305 305 306 305 305 306
307 306 303 304 305 305 304 303 303 301 299 299 298 299 299 300 301 300 300 298 297 298 298 299 300 301 302 302 303 304 304 304 305 306 305 306 305 306
307 306 302 303 305 306 306 304 303 302 301 300 299 300 301 302 301 300 300 298 298 298 299 299 300 301 302 302 303 304 305 304 305 305 305 305 305 306
307 304 302 302 304 305 306 305 303 303 302 303 305 304 301 300 301 302 301 300 300 300 301 301 302 303 303 304 304 305 305 304 304 305 305 305 307 307
303 302 302 302 304 304 305 305 304 304 305 304 301 301 302 303 303 301 300 299 299 301 302 302 303 304 304 304 304 304 304 305 305 305 305 306 305 307
304 303 302 302 304 304 303 303 302 302 300 300 299 299 301 299 298 298 298 298 300 301 302 303 303 303 305 305 305 304 305 305 305 306 306 308 308 307
300 299 301 303 306 304 302 301 300 300 300 300 302 300 298 297 297 299 299 298 300 301 302 303 304 304 304 306 306 305 306 305 306 306 308 308 307 309
299 299 301 304 305 301 300 300 300 301 302 301 298 298 296 298 298 300 302 301 300 301 303 302 303 304 305 306 306 306 306 306 307 308 308 307 308 309
299 300 304 305 305 303 302 303 303 302 299 298 297 296 298 299 302 302 302 304 307 306 308 308 304 306 307 307 307 307 308 308 308 307 307 308 310 311
301 304 305 305 304 303 303 302 301 299 298 297 296 298 298 300 300 301 302 306 309 306 305 305 306 307 306 307 307 307 307 308 307 307 308 311 311 313
304 304 303 302 302 301 300 299 298 297 296 296 297 298 298 300 300 302 304 308 311 309 308 308 307 307 306 306 306 307 306 307 307 308 310 312 312 313
302 301 301 300 299 299 298 297 296 296 296 297 298 297 298 299 300 302 305 309 310 308 308 307 307 307 306 306 307 307 307 308 309 310 311 309 308 311
300 300 299 298 298 297 297 296 296 296 297 298 297 296 298 299 300 301 304 307 310 310 309 308 307 307 307 307 309 307 309 310 310 310 310 310 308 309
299 298 297 298 297 296 296 295 297 297 298 297 296 296 298 298 299 300 302 305 310 310 309 308 308 307 307 308 308 308 309 309 309 307 308 309 308 308
298 298 298 297 297 296 296 297 297 297 296 296 295 295 297 297 299 300 301 304 310 309 309 308 308 308 308 308 306 304 308 310 311 311 308 306 306 306
299 298 297 296 296 296 297 297 297 296 296 295 295 295 295 297 298 299 300 303 308 308 308 308 308 308 307 307 305 304 303 308 310 309 308 307 307 306
298 297 296 296 296 296 297 297 296 296 296 294 294 294 294 296 298 299 300 302 307 308 308 308 308 307 307 307 306 306 305 306 308 309 308 309 308 308

GFSNE_925_thetae_036.txt.gz
Theta_e
307 307 306 306 305 305 306 305 303 297 296 300 302 302 302 302 301 300 301 301 302 301 304 305 306 306 306 307 307 308 308 308 309 309 309 310 310 311
308 307 306 305 305 305 304 305 304 302 299 301 301 301 301 301 300 300 299 299 300 301 305 305 304 305 306 306 306 306 306 307 308 308 308 309 309 309
307 307 306 306 305 304 304 303 303 303 300 300 300 300 299 299 300 299 299 300 301 302 302 301 302 304 304 305 305 305 306 306 307 307 307 308 308 309
307 307 306 305 304 303 303 302 301 302 302 298 300 299 299 299 299 299 299 300 301 301 301 300 302 303 303 303 304 305 306 306 307 307 307 308 309 308
305 307 307 305 305 302 302 302 301 301 302 301 300 300 299 299 299 299 299 300 301 301 300 300 302 303 303 304 304 304 304 305 305 307 307 308 308 308
304 305 306 306 305 303 301 302 301 300 300 300 299 299 299 299 299 299 300 300 300 300 300 300 300 300 301 302 303 303 305 305 305 305 304 305 307 307
305 305 306 306 306 305 302 301 300 299 298 298 297 297 298 298 299 299 300 300 301 300 299 299 298 297 297 299 301 302 304 304 304 304 304 303 305 307
304 304 306 307 307 308 307 303 301 300 298 298 297 297 298 299 299 300 300 298 297 299 299 298 298 298 299 300 302 302 303 302 304 305 305 305 306 306
303 304 304 307 307 307 308 308 304 302 304 302 299 299 299 299 299 300 300 299 298 299 299 298 299 299 299 300 302 302 303 304 304 305 306 305 305 306
303 303 303 306 305 305 305 307 305 304 303 302 302 301 300 301 302 301 300 300 300 300 299 299 299 299 300 301 303 303 303 304 304 304 305 305 305 305
303 303 303 306 304 306 305 305 304 303 303 302 301 301 304 302 301 303 301 299 299 298 298 298 299 301 302 303 304 304 304 304 305 305 304 305 305 305
302 302 304 305 305 307 306 304 302 303 303 304 303 303 303 302 301 301 299 298 298 298 301 300 302 303 304 304 304 304 304 304 305 305 305 305 305 305
302 303 303 304 305 307 306 303 303 303 302 302 300 299 300 300 297 296 297 298 297 299 301 303 303 303 303 305 305 305 305 304 305 305 305 305 305 306
303 302 302 305 305 306 304 303 303 301 300 300 300 299 297 296 297 299 301 300 299 299 301 301 302 303 304 304 306 305 305 305 306 305 306 306 308 307
302 301 303 305 305 305 303 303 300 300 301 299 297 296 297 298 300 302 302 302 303 305 305 305 302 303 304 306 306 306 306 306 306 306 307 308 308 308
302 302 305 305 302 304 304 302 301 301 298 297 296 297 298 300 301 300 302 306 307 306 305 306 303 302 305 306 306 306 307 308 307 308 307 307 308 309
303 305 303 301 301 301 300 299 298 297 296 296 297 297 299 300 300 302 305 307 309 307 306 306 306 307 307 307 307 307 307 307 307 307 308 309 310 312
303 302 300 299 298 297 297 296 295 296 296 297 296 297 299 299 301 303 305 309 308 307 307 306 306 306 307 307 307 307 307 307 308 309 310 309 309 313
300 299 298 297 296 296 296 295 295 296 297 296 296 298 298 299 300 302 306 308 307 307 307 307 306 306 307 308 306 307 307 308 308 309 310 309 308 310
299 297 297 296 296 295 295 296 297 297 295 295 296 297 298 298 299 301 305 309 309 308 308 307 306 306 308 307 307 308 308 309 308 307 308 309 308 311
297 296 296 296 295 296 297 297 296 295 294 294 295 297 298 298 299 301 306 309 309 308 308 307 307 307 307 306 306 304 308 309 310 309 307 306 306 306
297 296 296 295 296 297 296 295 295 294 294 294 294 297 298 298 299 301 305 308 308 308 307 307 307 307 306 306 305 303 302 306 309 309 309 309 307 304
296 296 295 296 297 297 296 295 295 294 293 293 294 297 298 298 299 301 304 307 308 308 308 307 307 307 306 306 306 305 304 305 306 307 307 308 308 307

GFSNE_925_thetae_042.txt.gz
Theta_e
306 307 309 309 310 309 309 310 311 312 316 314 311 309 308 307 307 307 306 306 303 303 302 303 305 309 310 310 310 311 311 311 312 312 312 312 312 313
306 306 307 308 309 310 310 308 309 310 312 313 315 311 308 307 307 306 307 306 305 303 302 302 304 308 309 309 309 309 309 310 310 311 311 311 311 312
305 305 306 307 308 310 311 310 308 308 309 310 312 312 308 307 305 305 306 306 306 303 303 303 304 303 304 307 308 308 308 309 309 309 309 309 310 311
304 305 306 306 306 307 309 310 309 308 306 309 311 311 307 306 306 305 305 306 306 306 307 304 301 300 302 304 304 305 307 307 308 308 308 308 309 310
303 304 305 305 305 306 307 309 310 309 306 307 307 308 308 306 306 305 306 305 305 304 304 305 302 302 303 302 302 302 301 300 301 305 307 308 309 309
303 304 304 304 305 305 306 306 308 309 308 305 304 306 307 305 305 305 305 304 303 302 302 302 304 304 303 302 302 301 300 300 301 302 302 303 307 308
303 303 303 303 303 304 305 306 307 307 308 307 304 305 307 306 305 305 304 304 303 303 303 303 303 303 303 304 303 302 300 301 302 303 303 302 302 304
302 302 302 302 302 304 305 306 307 307 307 306 305 307 307 306 304 305 305 305 306 304 303 304 303 303 304 303 303 302 302 301 300 300 300 301 303 303
301 302 302 301 301 302 304 305 306 308 308 307 305 306 306 306 306 306 305 305 305 305 304 304 303 303 303 302 301 300 299 297 299 301 301 301 302 303
301 301 301 301 301 301 302 303 305 306 309 308 305 305 305 306 306 306 306 305 305 304 303 304 303 303 303 303 302 301 299 299 299 301 302 303 303 305
300 300 299 300 300 301 302 303 304 306 308 309 308 305 304 304 304 304 305 305 305 304 304 303 303 303 302 302 302 302 303 303 303 304 303 303 303 303
299 299 299 300 301 301 302 304 304 306 307 308 309 307 306 304 303 304 304 305 304 305 304 304 304 302 306 307 308 308 307 305 304 303 304 305 305 306
298 299 300 300 300 302 304 304 305 305 307 306 307 305 303 303 303 303 304 304 305 304 303 303 303 305 305 306 308 308 308 307 306 305 304 304 305 306
299 300 301 301 302 303 303 304 305 306 306 306 304 303 304 305 305 305 305 305 304 303 302 302 302 301 303 304 305 304 306 307 307 307 306 304 305 305
301 302 302 303 303 304 304 304 305 306 305 305 305 305 305 304 304 303 301 301 300 301 301 301 300 301 302 304 304 304 306 306 306 307 306 305 306 306
302 301 302 303 304 305 304 305 306 304 305 304 304 304 303 302 301 300 301 303 302 303 305 305 304 302 302 302 304 304 306 306 305 305 306 306 306 306
300 302 300 302 304 303 304 303 302 303 303 303 303 302 301 300 301 303 304 303 305 308 308 306 303 305 302 303 303 305 307 307 306 306 307 307 306 306
301 304 303 302 301 300 300 301 300 301 300 300 300 300 301 302 304 302 303 305 309 309 308 307 305 304 304 304 305 307 307 307 306 307 307 308 308 308
301 300 299 298 298 299 299 299 299 299 299 299 300 302 303 302 302 303 304 308 308 308 308 307 307 307 307 307 307 307 307 307 308 308 309 309 309 310
298 298 298 298 298 299 299 298 298 298 299 301 301 300 300 301 302 307 309 309 309 308 308 308 308 307 308 308 308 307 307 308 309 309 308 309 310 309
298 298 298 298 298 298 298 297 297 298 299 297 297 298 299 301 304 309 309 309 308 308 308 308 308 308 307 307 305 304 308 308 308 308 308 308 309 310
298 298 297 297 297 296 296 295 296 297 296 296 297 298 299 302 306 310 310 309 309 308 308 307 308 307 307 305 304 304 304 308 308 308 307 308 308 308
297 296 296 295 295 295 294 295 296 296 296 296 297 298 300 302 308 309 309 309 308 308 307 307 308 307 307 306 306 305 305 305 306 307 307 309 310 310

GFSNE_925_thetae_048.txt.gz
Theta_e
303 304 305 307 308 308 308 311 310 309 309 310 311 312 314 312 311 311 310 310 309 308 306 307 304 307 310 314 314 314 315 317 317 317 316 316 315 315
302 303 303 305 307 307 307 308 310 310 309 310 311 312 313 313 312 311 310 310 309 308 307 304 304 303 305 309 312 313 314 314 315 316 315 314 314 314
302 303 302 303 306 307 307 307 309 310 308 309 310 311 312 313 312 311 310 310 309 309 308 306 304 304 304 304 309 311 312 313 314 313 313 313 313 313
302 303 302 303 305 306 307 307 307 308 309 307 310 311 312 313 313 312 310 309 309 309 308 307 305 304 304 304 305 306 310 310 310 311 311 312 312 312
301 302 302 302 303 305 304 306 307 307 307 309 310 310 310 311 311 312 309 308 308 308 308 307 306 305 304 304 304 304 306 306 306 304 307 310 311 311
301 301 302 302 302 303 304 306 306 306 307 308 309 309 309 310 310 310 308 307 307 308 308 307 307 307 305 304 303 304 303 302 302 303 302 302 302 306
300 301 301 302 302 302 303 305 305 305 306 307 308 308 308 308 309 309 308 307 307 307 307 308 309 309 308 305 304 303 301 300 301 301 301 300 300 300
299 301 300 301 302 303 302 305 302 304 304 305 307 307 307 307 308 308 307 307 306 307 307 308 307 309 308 307 305 302 300 300 300 300 300 300 301 300
300 300 301 301 301 301 300 305 304 305 305 305 305 307 306 306 307 308 307 306 307 307 307 305 306 305 304 304 303 302 302 302 302 303 302 302 302 301
299 300 300 300 300 299 300 301 303 303 304 304 305 305 306 306 305 307 308 306 306 307 306 305 304 304 304 304 304 304 304 304 304 304 303 302 302 302
299 299 299 300 300 300 303 302 302 302 303 304 304 305 306 306 306 306 308 305 306 306 306 305 305 306 305 305 305 305 304 303 303 303 302 300 300 299
299 299 300 300 300 302 302 301 301 301 302 302 301 301 304 306 307 307 307 306 305 305 306 306 306 306 304 305 304 304 305 304 303 302 302 301 300 299
299 299 299 300 302 302 302 301 301 301 302 302 302 301 302 303 307 308 308 306 306 306 306 306 305 305 304 307 304 304 304 304 306 305 304 304 304 302
298 299 299 299 300 301 302 301 301 301 301 301 302 303 303 305 307 307 307 307 305 306 306 306 305 305 304 305 305 308 308 309 308 308 308 306 305 304
298 298 299 299 299 300 300 301 302 301 301 302 303 304 305 306 306 306 306 306 305 305 305 306 305 305 305 305 304 304 305 306 308 308 307 307 306 305
299 299 299 298 298 298 299 301 301 302 303 303 304 304 305 305 305 306 305 304 304 305 305 305 304 304 304 305 304 303 304 305 305 305 305 307 307 306
297 298 299 299 300 300 300 301 302 303 304 304 305 305 305 304 304 304 304 304 305 304 303 303 302 302 302 303 302 302 304 304 304 305 307 307 307 307
298 299 299 299 300 300 300 301 302 303 304 304 305 305 305 305 305 304 304 304 303 303 303 303 302 303 303 303 303 303 304 304 304 304 306 306 307 306
299 300 299 300 300 300 300 300 301 303 304 304 304 304 305 305 303 303 303 303 303 302 303 305 304 304 304 304 303 303 303 303 304 306 306 306 306 306
299 298 298 298 299 300 301 301 301 301 303 303 303 303 303 302 302 302 303 303 303 304 305 305 304 304 304 306 306 304 304 306 307 307 307 307 307 307
295 295 295 296 296 297 298 299 299 300 300 301 301 301 301 302 302 303 303 303 304 306 307 306 305 305 306 306 306 306 307 307 306 306 307 307 307 306
294 295 295 295 296 297 297 297 297 298 298 299 299 300 301 302 302 302 302 304 306 307 307 307 307 307 306 305 305 305 306 308 307 306 307 308 308 309
294 294 295 295 295 295 295 295 295 296 296 297 297 298 299 300 301 303 303 307 308 308 307 307 307 306 306 306 306 306 306 306 307 308 308 309 309 309